Time,TemperatureF,DewpointF,PressureIn,WindDirection,WindDirectionDegrees,WindSpeedMPH,WindSpeedGustMPH,Humidity,HourlyPrecipIn,Conditions,Clouds,dailyrainin,SoftwareType,DateUTC
2015-05-23 00:03:00,52.8,45.1,30.17,ESE,105,0.0,0.0,75,0.00,,,0.00,VWS V15.00,2015-05-23 05:03:00,
2015-05-23 00:08:00,52.8,45.5,30.17,ESE,104,0.0,0.0,76,0.00,,,0.00,VWS V15.00,2015-05-23 05:08:00,
2015-05-23 00:13:00,52.8,45.8,30.17,ESE,104,0.0,0.0,77,0.00,,,0.00,VWS V15.00,2015-05-23 05:13:00,
2015-05-23 00:18:00,52.8,46.1,30.17,ESE,104,0.0,0.0,78,0.00,,,0.00,VWS V15.00,2015-05-23 05:18:00,
2015-05-23 00:23:00,52.7,46.0,30.17,ESE,104,0.0,0.0,78,0.00,,,0.00,VWS V15.00,2015-05-23 05:23:00,
2015-05-23 00:28:00,52.8,46.5,30.17,ESE,104,0.0,0.0,79,0.00,,,0.00,VWS V15.00,2015-05-23 05:28:00,
2015-05-23 00:38:00,52.4,46.1,30.17,ESE,104,0.0,0.0,79,0.00,,,0.00,VWS V15.00,2015-05-23 05:38:00,
2015-05-23 00:43:00,52.3,46.0,30.17,ESE,104,0.0,0.0,79,0.00,,,0.00,VWS V15.00,2015-05-23 05:43:00,
2015-05-23 00:48:00,52.1,45.8,30.17,ESE,105,0.0,0.0,79,0.00,,,0.00,VWS V15.00,2015-05-23 05:48:00,
2015-05-23 00:53:00,52.0,45.7,30.17,ESE,104,0.0,0.0,79,0.00,,,0.00,VWS V15.00,2015-05-23 05:53:00,
2015-05-23 00:58:00,51.7,45.4,30.17,ESE,104,0.0,0.0,79,0.00,,,0.00,VWS V15.00,2015-05-23 05:58:00,
2015-05-23 01:04:00,51.5,45.2,30.17,ESE,104,0.0,0.0,79,0.00,,,0.00,VWS V15.00,2015-05-23 06:04:00,
2015-05-23 01:09:00,51.4,45.1,30.17,ESE,104,0.0,0.0,79,0.00,,,0.00,VWS V15.00,2015-05-23 06:09:00,
2015-05-23 01:14:00,51.2,44.9,30.17,ESE,104,0.0,0.0,79,0.00,,,0.00,VWS V15.00,2015-05-23 06:14:00,
2015-05-23 01:19:00,51.0,45.1,30.17,ESE,105,0.0,0.0,80,0.00,,,0.00,VWS V15.00,2015-05-23 06:19:00,
2015-05-23 01:24:00,50.9,45.0,30.17,ESE,104,0.0,0.0,80,0.00,,,0.00,VWS V15.00,2015-05-23 06:24:00,
2015-05-23 01:29:00,50.8,44.9,30.17,ESE,104,0.0,0.0,80,0.00,,,0.00,VWS V15.00,2015-05-23 06:29:00,
2015-05-23 01:34:00,50.7,44.8,30.17,ESE,104,0.0,0.0,80,0.00,,,0.00,VWS V15.00,2015-05-23 06:34:00,
2015-05-23 01:44:00,50.4,44.8,30.17,ESE,105,0.0,0.0,81,0.00,,,0.00,VWS V15.00,2015-05-23 06:44:00,
2015-05-23 01:49:00,50.3,44.7,30.18,ESE,104,0.0,0.0,81,0.00,,,0.00,VWS V15.00,2015-05-23 06:49:00,
2015-05-23 01:54:00,50.3,45.0,30.17,ESE,104,0.0,0.0,82,0.00,,,0.00,VWS V15.00,2015-05-23 06:54:00,
2015-05-23 01:59:00,50.1,44.5,30.17,ESE,105,0.0,0.0,81,0.00,,,0.00,VWS V15.00,2015-05-23 06:59:00,
2015-05-23 02:04:00,50.1,44.8,30.18,ESE,105,0.0,0.0,82,0.00,,,0.00,VWS V15.00,2015-05-23 07:04:00,